Meteo Giornale » Osservazioni meteo Austria » Vienna-Schwechat

ore: 19:20 - Osservazioni Meteo Vienna-Schwechat
Lat. 48° 7' N Lon. 16° 34' E Alt. 183 metri s.l.m.

sereno Europe/Vienna

21 °C

Sereno

Temp. 24 Ore

15 °C

23 °C

Ovest

20.3 Km/h

Dew point 9 °C

Umidità 46 %

Visibilità  10 Km

Il sole sorge alle ore 05:44

Il sole tramonta alle ore 19:58

Data e Ora Cielo e Fenomeni T °C DP °C Um. % Pres. hPa Vis. km Vento km/h
Oggi h: 19:20 sereno Sereno 21 9 46 1015 10 O 20.3
Oggi h: 18:20 sereno Sereno 22 9 43 1015 10 O 24
Oggi h: 17:50 sereno Sereno 23 9 40 1015 10 O 27.8
Oggi h: 17:20 sereno Sereno 23 8 38 1015 10 O 25.9
Oggi h: 16:50 sereno Sereno 23 10 43 1016 10 O 27.8
Oggi h: 16:20 sereno Sereno 23 9 40 1016 10 O 27.8
Oggi h: 15:50 sereno Sereno 23 10 43 1016 10 O 29.6
Oggi h: 15:20 nuvoloso Nuvoloso 23 10 43 1016 10 O 31.5
Oggi h: 14:50 poco_nuvoloso Poco Nuvoloso 23 10 43 1017 10 O 25.9
Oggi h: 14:20 poco_nuvoloso Poco Nuvoloso 23 11 46 1017 10 O 25.9
Oggi h: 13:50 poco_nuvoloso Poco Nuvoloso 22 12 53 1017 10 O 25.9
Oggi h: 13:20 poco_nuvoloso Poco Nuvoloso 22 12 53 1017 10 O 22.2
Oggi h: 12:50 nuvoloso Nuvoloso 21 12 56 1018 10 O 22.2
Oggi h: 12:20 nuvoloso Nuvoloso 21 13 60 1018 10 O/NO 18.5
Oggi h: 11:50 nuvoloso Nuvoloso 20 13 64 1018 10 O 24
Oggi h: 11:20 nuvoloso Nuvoloso 19 12 63 1018 10 O 24
Oggi h: 10:50 molto_nuvoloso Molto Nuvoloso 19 12 63 1018 10 O/NO 25.9
Oggi h: 10:20 molto_nuvoloso Molto Nuvoloso 20 13 64 1018 10 O/NO 24
Oggi h: 09:50 molto_nuvoloso Molto Nuvoloso 19 13 68 1018 10 O 22.2
Oggi h: 09:20 molto_nuvoloso Molto Nuvoloso 17 12 72 1018 10 O 25.9
Oggi h: 08:50 molto_nuvoloso Molto Nuvoloso 17 12 72 1018 10 O/NO 27.8
Oggi h: 08:20 sereno Sereno 17 12 72 1018 10 O 25.9
Oggi h: 07:50 sereno Sereno 16 12 77 1017 10 O 22.2
Oggi h: 07:20 sereno Sereno 17 12 72 1017 10 O 24
Oggi h: 06:50 sereno Sereno 17 12 72 1017 10 O/NO 18.5
Oggi h: 06:20 sereno Sereno 17 12 72 1016 10 O 25.9
Oggi h: 05:50 sereno Sereno 17 12 72 1016 10 O 25.9
Oggi h: 05:20 sereno Sereno 17 12 72 1016 10 O 22.2
Oggi h: 04:50 sereno Sereno 16 12 77 1016 10 O 22.2
Oggi h: 04:20 sereno Sereno 16 13 82 1016 10 O 14.8
Oggi h: 03:50 sereno Sereno 16 13 82 1016 10 O 11.1
Oggi h: 03:20 sereno Sereno 15 13 87 1016 10 SO 9.3
Oggi h: 02:50 sereno Sereno 15 14 93 1016 10 N 5.5
Oggi h: 02:20 molto_nuvoloso Molto Nuvoloso 16 14 87 1016 10 O 11.1
Oggi h: 01:50 coperto_pioggia Pioggia Debole 16 14 87 1016 10 O 13
Oggi h: 01:20 coperto_pioggia Pioggia Debole 16 14 87 1016 10 O/NO 16.7
Oggi h: 00:50 nuvoloso_piovaschi Rovescio di Pioggia 16 14 87 1016 10 NO 20.3
Oggi h: 00:20 coperto_pioggia Pioggia Debole 18 13 72 1016 10 O/NO 22.2
Ieri h: 23:50 molto_nuvoloso Molto Nuvoloso 17 11 67 1015 10 O/NO 7.4
Ieri h: 23:20 molto_nuvoloso Molto Nuvoloso 17 11 67 1015 10 NO 9.3
Ieri h: 22:50 molto_nuvoloso Molto Nuvoloso 17 11 67 1015 10 N 9.3
Ieri h: 22:20 molto_nuvoloso Molto Nuvoloso 17 11 67 1015 10 N/NE 9.3
Ieri h: 21:50 sereno Sereno 18 11 63 1015 10 E/NE 9.3
Ieri h: 21:20 sereno Sereno 18 11 63 1015 10 NE 9.3
Ieri h: 20:50 nuvoloso Nuvoloso 19 11 59 1015 10 N/NE 7.4
Ieri h: 20:20 molto_nuvoloso Molto Nuvoloso 21 10 49 1014 10 O/NO 24
Ieri h: 19:50 nuvoloso_piovaschi Debole Rovescio di Pioggia 22 11 49 1013 10 SO 29.6